ORBCOMM FM36 [+]

Last updated on July 6, 2021, 3:36 p.m. UTC

1 25984U 99065E   21186.87311021  .00000052  00000-0  69803-4 0  9995
2 25984  45.0393  48.9329 0003165 316.8074  43.2524 14.33063290127318
UTC
Height (km)
Latitude
Longitude
Inclination
Orbital Period
UTC large
Height (km)
Speed (km/s)
/
Latitude / Longitude
Inclination (degrees)
Orbital Period (minutes)
Azimuth
Elevation
Range (km)
Doppler Factor
iOS Compass Heading
iOS Angle